TimeCDT,TemperatureF,Dew PointF,Humidity,Sea Level PressureIn,VisibilityMPH,Wind Direction,Wind SpeedMPH,Gust SpeedMPH,PrecipitationIn,Events,Conditions,WindDirDegrees,DateUTC
12:53 AM,84.9,66.0,53,29.96,10.0,SSE,8.1,-,N/A,,Partly Cloudy,150,2013-08-23 05:53:00
1:53 AM,84.0,66.0,55,29.96,10.0,SE,8.1,-,N/A,,Partly Cloudy,140,2013-08-23 06:53:00
2:53 AM,82.9,66.9,58,29.95,10.0,South,9.2,-,N/A,,Mostly Cloudy,180,2013-08-23 07:53:00
3:53 AM,82.9,66.9,58,29.95,10.0,SSW,9.2,-,N/A,,Scattered Clouds,200,2013-08-23 08:53:00
4:53 AM,80.6,68.0,65,29.95,10.0,SSE,3.5,-,N/A,,Scattered Clouds,160,2013-08-23 09:53:00
5:53 AM,80.1,68.0,67,29.96,9.0,East,4.6,-,N/A,,Mostly Cloudy,100,2013-08-23 10:53:00
6:53 AM,79.0,69.1,72,29.98,10.0,SSE,4.6,-,N/A,,Mostly Cloudy,150,2013-08-23 11:53:00
7:53 AM,80.1,69.1,69,29.99,10.0,ESE,5.8,-,N/A,,Scattered Clouds,120,2013-08-23 12:53:00
8:53 AM,84.0,70.0,63,30.01,10.0,SSE,6.9,-,N/A,,Scattered Clouds,150,2013-08-23 13:53:00
9:53 AM,87.1,70.0,57,30.00,10.0,SSW,8.1,-,N/A,,Partly Cloudy,200,2013-08-23 14:53:00
10:53 AM,91.0,70.0,50,30.01,10.0,SSE,6.9,-,N/A,,Scattered Clouds,160,2013-08-23 15:53:00
11:53 AM,93.0,69.1,45,29.99,10.0,South,5.8,-,N/A,,Scattered Clouds,180,2013-08-23 16:53:00
12:53 PM,93.9,66.9,41,29.98,10.0,Calm,Calm,-,N/A,,Scattered Clouds,0,2013-08-23 17:53:00
1:53 PM,95.0,64.9,37,29.96,10.0,East,8.1,-,N/A,,Scattered Clouds,90,2013-08-23 18:53:00
2:53 PM,98.1,62.1,30,29.93,10.0,SE,6.9,-,N/A,,Scattered Clouds,140,2013-08-23 19:53:00
3:53 PM,99.0,60.1,28,29.90,10.0,ESE,9.2,-,N/A,,Scattered Clouds,120,2013-08-23 20:53:00
4:53 PM,98.1,62.1,30,29.88,10.0,East,9.2,-,N/A,,Scattered Clouds,100,2013-08-23 21:53:00
5:53 PM,98.1,61.0,29,29.88,10.0,ESE,5.8,-,N/A,,Mostly Cloudy,110,2013-08-23 22:53:00
6:53 PM,97.0,61.0,30,29.86,10.0,SE,9.2,-,N/A,,Mostly Cloudy,140,2013-08-23 23:53:00
7:53 PM,93.0,63.0,37,29.88,10.0,ENE,11.5,-,N/A,,Mostly Cloudy,70,2013-08-24 00:53:00
8:53 PM,90.0,64.0,42,29.90,10.0,ENE,11.5,-,N/A,,Mostly Cloudy,70,2013-08-24 01:53:00
9:53 PM,90.0,63.0,40,29.93,10.0,East,9.2,-,N/A,,Mostly Cloudy,80,2013-08-24 02:53:00
10:53 PM,84.0,66.9,56,29.96,6.0,Variable,4.6,-,0.04,Rain,Heavy Rain,0,2013-08-24 03:53:00
11:17 PM,84.9,66.9,55,29.97,6.0,West,18.4,-,0.10,Rain,Light Rain,260,2013-08-24 04:17:00
11:53 PM,86.0,66.9,53,29.95,10.0,ENE,3.5,-,0.10,,Mostly Cloudy,70,2013-08-24 04:53:00